Regional Weather Roundup
Issued by NWS Midland/Odessa, TX

Skip options and go directly to product.
Home | Oldest Version | Previous Version | Current Version | All | Text Only | Save Text | Print | Product List | Glossary Off

Skip product version selection by date and time.   

401
ASUS44 KMAF 010410
RWRMAF
MIDLAND AREA WEATHER ROUNDUP
NATIONAL WEATHER SERVICE MIDLAND TX
1100 PM CDT SAT APR 30 2016

...IN SOUTHWEST TEXAS AND SOUTHEAST NEW MEXICO...

CITY           SKY/WX    TMP DP  RH WIND       PRES   REMARKS
ALPINE         CLEAR     65  18  16 SE7       29.89R
ANDREWS        FAIR      67  40  37 E20G25    29.85R
ARTESIA        PTCLDY    68  32  26 NW13      29.80R
BIG SPRING     CLEAR     65  39  38 E18       29.87R
CARLSBAD       CLEAR     60  20  21 NW3       29.77R
DRYDEN           N/A     77  33  20 SE14      29.75S
FORT STOCKTON  CLEAR     71  23  16 SE10      29.77R
GUAD PASS      CLEAR     60  15  17 NE18      29.88R
HOBBS          PTCLDY    66  32  28 E17       29.84R
MARFA          CLEAR     52  15  23 NE9       29.86R
MIDLAND AIRPK  CLEAR     68  40  35 E10       29.85R
MIDLAND INTL   CLEAR     68  42  38 E15       29.84R
ODESSA         CLEAR     69  42  37 E16G24    29.84R
PECOS          CLEAR     73  24  16 E15       29.75R
PRESIDIO       FAIR      76  14   9 NE5       29.70R
SEMINOLE       MOCLDY    66  38  36 E15       29.85R
SNYDER           N/A     63  45  51 NE13G18   29.89R
WINK           CLEAR     68  26  20 E10       29.76R
$$
...OTHER STATIONS IN TEXAS...

CITY           SKY/WX    TMP DP  RH WIND       PRES   REMARKS
ABILENE        CLEAR     64  51  62 E10       29.89R
AMARILLO       CLOUDY    47  36  65 N17       30.03R
AUSTIN         CLEAR     72  66  81 NE6       29.81R
BROWNSVILLE    CLOUDY    78  77  96 E5        29.73R FOG
CORPUS CHRISTI MOCLDY    80  74  81 E10       29.75R
DALLAS FTW     PTCLDY    68  58  70 NW5       29.88R
DEL RIO        CLEAR     76  52  43 E10       29.75R
EL PASO        MOCLDY    69  17  13 NW7       29.75R
HOUSTON INT    PTCLDY    74  74 100 SE7       29.79R
LUBBOCK        CLEAR     57  41  55 NE18      29.92R
SAN ANGELO     CLEAR     62  46  55 E8        29.85R
SAN ANTONIO    PTCLDY    70  62  76 E5        29.80R
WACO           CLEAR     66  62  87 N8        29.86R
WICHITA FALLS  NOT AVBL
$$
...OTHER LOCATIONS IN NEW MEXICO...

CITY           SKY/WX    TMP DP  RH WIND       PRES   REMARKS
ALAMAGORDO     PTCLDY    63  19  19 SE5       29.79R
ALBUQUERQUE    CLOUDY    51  43  74 N7        29.90R
CANNON AFB     NOT AVBL
CLOVIS         CLOUDY    52  39  62 NE28G36   30.00R
HOLLOMAN AFB   MOCLDY    65  19  17 E5        29.77R
ROSWELL        CLOUDY    65  37  35 N17       29.81R
RUIDOSO          N/A     50  25  37 SE9       29.96R
SANTA FE       LGT RAIN  43  39  86 SE17      29.96R WCI  35
TRUTH OR CONSE CLOUDY    68  20  16 S7        29.78R
TUCUMCARI      LGT RAIN  44  37  76 NE22G29   30.04R WCI  35
$$

USA.gov is the U.S. government's official web portal to all federal, state and local government web resources and services.